{"data":{"norad_id":68987,"intl_designator":"2026-100H","name":"IRIDE-MS2-HEO-15","alt_names":[],"object_type":"PAYLOAD","status":"ACTIVE","operator":null,"country":"IT","launch_date":"2026-05-03","launch_site_code":"AFWTR","launch_vehicle":null,"mission":null,"orbit_class":"UNKNOWN","rcs_meters":null,"size_class":null,"mass_kg":null,"dimensions":null,"purposes":[],"wikipedia_slug":null,"has_3d_model":false,"image_url":null,"decayed_at":null,"tle_current":{"epoch":"2026-09-20T04:15:10.447200Z","epoch_age_seconds":47270,"freshness":"FRESH","line1":"1 68987U 26100H   26263.17720425  .00000803  00000+0  84616-4 0  9993","line2":"2 68987  97.7203 158.7792 0002264 130.5129 229.6288 14.92019657 20869","mean_motion":14.92019657,"eccentricity":0.0002264,"inclination_deg":97.7203,"raan_deg":158.7792,"arg_perigee_deg":130.5129,"mean_anomaly_deg":229.6288,"bstar":8.4616e-5,"rev_number":2086,"period_min":96.513473749763,"perigee_km":590.06089439909,"apogee_km":593.21680890472,"semimajor_km":6969.7758516519,"source":"CELESTRAK","updated_at":"2026-09-20T09:00:24.599595Z"}}}